Skip Page Navigation
NASA JPL Caltech
NASA Logo - Jet Propulsion Laboratory + View the NASA Portal
+ Center for Near-Earth Object Studies
JPL Home Earth Solar System Stars & Galaxies Technology
JPL Solar System Dynamics
BODIES ORBITS EPHEMERIDES TOOLS PHYSICAL DATA DISCOVERY FAQ SITE MAP
JPL Small-Body Database Browser
Search: [ help ]  
277250 (2005 RL41)
Classification: Main-belt Asteroid          SPK-ID: 2277250
Ephemeris | Orbit Diagram | Orbital Elements | Mission Design | Physical Parameters | Discovery Circumstances ]

[ show orbit diagram ]
Orbital Elements at Epoch 2459000.5 (2020-May-31.0) TDB
Reference: JPL 6 (heliocentric ecliptic J2000)
 Element Value Uncertainty (1-sigma)   Units 
e .1856575570411994 2.1936e-07  
a 2.450003215887062 5.5763e-08 au
q 1.995141604082388 5.0255e-07 au
i 2.534101476850101 1.1346e-05 deg
node 99.67276089671719 0.0002869 deg
peri 238.2805089349364 0.00029206 deg
M 312.7831752615617 8.3437e-05 deg
tp 2459184.214183016416
(2020-Nov-30.71418302)
0.00033037 TDB
period 1400.710578322069
3.83
4.7821e-05
1.309e-07
d
yr
n .2570124089669182 8.7746e-09 deg/d
Q 2.904864827691736 6.6116e-08 au
  Orbit Determination Parameters
   # obs. used (total)      55  
   data-arc span      5966 days (16.33 yr)  
   first obs. used      2001-08-14  
   last obs. used      2017-12-14  
   planetary ephem.      DE431  
   SB-pert. ephem.      SB431-N16  
   condition code      0  
   norm. resid. RMS      .71071  
   source      ORB  
   producer      Otto Matic  
   solution date      2019-Jul-14 06:10:51  

Additional Information
 Earth MOID = .987337 au 
 Jupiter MOID = 2.47774 au 
 T_jup = 3.471 
[ show covariance matrix ]

Ephemeris | Orbit Diagram | Orbital Elements | Mission Design | Physical Parameters | Discovery Circumstances ]

Physical Parameter Table
Parameter Symbol Value Units Sigma Reference Notes
absolute magnitude H 17.8   n/a MPO433793  

277250 (2005 RL41)          Discovered 2005-Sep-13 by Spacewatch at Kitt Peak
Reference: 20110517/Numbers.arcLast Updated: 2011-05-20

Alternate Designations
 2005 RL41 = 2001 PH55 
Ephemeris | Orbit Diagram | Orbital Elements | Mission Design | Physical Parameters | Discovery Circumstances ]
ABOUT SSD CREDITS/AWARDS PRIVACY/COPYRIGHT GLOSSARY LINKS
FirstGov 2020-Aug-09 00:29 UT
(server date/time)  
NASA Home Page
Site Manager:   Ryan S. Park
Webmaster  Alan B. Chamberlin